Flag for China Weather past 2 weeks in Chongqing, Chongqing Municipality, China

Now
93 °F

Passing clouds.


Feels Like: 95 °F
Forecast: 83 / 104 °F
Wind: 3 mph from East

Location: Chongqing Airport

Current Time: Jul 28, 2014 at 9:52:41 PM

Latest Report: Jul 28, 2014 at 9:00 PM


Visibility: N/A

Pressure: 29.59 "Hg

Humidity: 39%

Dew point: 64 °F

Location of ChongqingLocation

Historic Weather in Chongqing — Graph

°F

Chongqing temperature yesterday

Maximum temperature yesterday: 99 °F (at 3:00 PM)
Minimum temperature yesterday: 82 °F (at 4:00 AM)
Average temperature yesterday: 90 °F

Past Weeks' High & Low Weather Summary

 TemperatureHumidityPressure
High102 °F (Jul 22, 3:00 PM)94% (Jul 14, 11:00 AM)29.86 "Hg (Jul 14, 11:00 AM)
Low72 °F (Jul 15, 3:00 AM)27% (Jul 22, 3:00 PM)29.53 "Hg (Jul 23, 6:00 PM)
Average86 °F58%29.72 "Hg
* Reported Jul 13 8:00 PM — Jul 28 8:00 PM, Chongqing, Weather by CustomWeather, © 2014

Note: Actual official high and low records may vary slightly from our data, if they occured in-between our weather recording intervals... More about our weather records

Advertising

Chongqing weather history for previous 24 hours

 ConditionsComfort  
Time TempWeatherWind HumidityBarometerVisibility
8:00 PM
Jul 28
95 °FClear.3 mph34%29.56 "Hg10 mi
7:00 PM97 °FPassing clouds.3 mph28%29.56 "HgN/A
6:00 PM99 °FPassing clouds.3 mph29%29.53 "HgN/A
5:00 PM100 °FScattered clouds.8 mph27%29.56 "HgN/A
4:00 PM99 °FScattered clouds.8 mph29%29.59 "HgN/A
3:00 PM99 °FScattered clouds.6 mph31%29.62 "HgN/A
2:00 PM97 °FPassing clouds.8 mph32%29.65 "HgN/A
1:00 PM97 °FPassing clouds.6 mph32%29.68 "HgN/A
12:00 PM95 °FPassing clouds.8 mph36%29.68 "HgN/A
11:00 AM91 °FPassing clouds.8 mph44%29.71 "HgN/A
10:00 AM90 °FPassing clouds.8 mph49%29.71 "HgN/A
9:00 AM88 °FPassing clouds.6 mph49%29.71 "HgN/A
8:00 AM86 °FPassing clouds.3 mph52%29.71 "HgN/A
7:00 AM81 °FSunny.3 mph70%29.71 "Hg10 mi
6:00 AM81 °FClear.1 mph62%29.71 "Hg10 mi
5:00 AM84 °FClear.3 mph55%29.71 "Hg10 mi
4:00 AM82 °FClear.1 mph58%29.71 "Hg10 mi
3:00 AM82 °FPassing clouds.3 mph62%29.71 "HgN/A
2:00 AM86 °FPassing clouds.3 mph52%29.71 "HgN/A
1:00 AM86 °FClear.1 mph52%29.74 "Hg10 mi
12:00 AM86 °FClear.6 mph55%29.74 "Hg10 mi
11:00 PM
Jul 27
88 °FPassing clouds.3 mph52%29.74 "HgN/A
10:00 PM90 °FPassing clouds.6 mph46%29.71 "HgN/A
9:00 PM91 °FClear.6 mph41%29.71 "Hg10 mi
Weather by CustomWeather, © 2014

See weather overviewHow to use our weather pages